Valparaiso, IN

10:44 PM CST on January 23, 2018 (GMT -0600)
Porter County Municipal

Weather History for KVPZ - May, 2012

Change the Weather History Date:

Saturday, May 12, 2012

  Actual Average Record
Temperature  
Mean Temperature 58 °F 58 °F  
Max Temperature 64 °F 69 °F 88 °F (2011)
Min Temperature 52 °F 47 °F 34 °F (2013)
Degree Days  
Heating Degree Days 7 8  
Month to date heating degree days 64 112  
Since 1 July heating degree days 6171  
Cooling Degree Days 0 1  
Month to date cooling degree days 19 8  
Year to date cooling degree days 60 13  
Growing Degree Days 8 (Base 50)    
Moisture  
Dew Point 48 °F    
Average Humidity 69    
Maximum Humidity 84    
Minimum Humidity 52    
Precipitation  
Precipitation 0.03 in 0.12 in 1.06 in (2002)
Month to date precipitation 1.66 1.54  
Year to date precipitation 8.41 10.72  
Sea Level Pressure  
Sea Level Pressure 30.21 in    
Wind  
Wind Speed 6 mph (NW)    
Max Wind Speed 12 mph    
Max Gust Speed 21 mph    
Visibility 10 miles    
Events Rain    
T = Trace of Precipitation, MM = Missing Value Source: NWS Daily Summary

Daily Weather History Graph

Daily Weather History Graph

Search for Another Location

Airport or City:

Trip Planner

Search our weather history database for the weather conditions in past years. The results will help you decide how hot, cold, wet, or windy it might be!

Date:

Astronomy

May. 12, 2012 Rise Set
Actual Time 5:31 AM CDT 7:57 PM CDT
Civil Twilight 5:00 AM CDT 8:29 PM CDT
Nautical Twilight 4:21 AM CDT 9:08 PM CDT
Astronomical Twilight 3:38 AM CDT 9:51 PM CDT
Moon 1:10 AM CDT (5/12) 12:11 PM CDT (5/12)
Length of Visible Light 15h 28m
Length of Day
14h 26m
Waning Gibbous, 52% of the Moon is Illuminated
May 12
Waning Gibbous
May 12
Last Quarter
May 20
New
May 28
First Quarter
Jun 4
Full

Hourly Weather History & Observations

Time (CDT) Temp. Dew Point Humidity Pressure Visibility Wind Dir Wind Speed Gust Speed Precip Events Conditions
12:53 AM 63.0 °F 45.0 °F 52% 30.15 in 10.0 mi SSW 5.8 mph - N/A   Mostly Cloudy
1:53 AM 59.0 °F 46.0 °F 62% 30.15 in 10.0 mi WSW 6.9 mph - N/A   Clear
2:53 AM 59.0 °F 46.0 °F 62% 30.15 in 10.0 mi SW 4.6 mph - N/A   Partly Cloudy
3:53 AM 60.1 °F 46.0 °F 60% 30.16 in 10.0 mi SW 5.8 mph - N/A   Overcast
4:53 AM 60.1 °F 46.9 °F 62% 30.16 in 10.0 mi SW 5.8 mph - N/A   Overcast
5:53 AM 59.0 °F 50.0 °F 72% 30.18 in 9.0 mi SSW 4.6 mph - 0.01 in Rain Light Rain
6:53 AM 57.9 °F 53.1 °F 84% 30.20 in 10.0 mi Calm Calm - 0.02 in   Overcast
7:53 AM 60.1 °F 51.1 °F 72% 30.23 in 10.0 mi West 6.9 mph - N/A   Overcast
8:53 AM 61.0 °F 52.0 °F 72% 30.24 in 10.0 mi NNW 4.6 mph - N/A   Overcast
9:53 AM 59.0 °F 53.1 °F 81% 30.24 in 10.0 mi NNW 9.2 mph - N/A   Scattered Clouds
10:53 AM 62.1 °F 53.1 °F 72% 30.25 in 10.0 mi Variable 3.5 mph - N/A   Partly Cloudy
11:53 AM 64.0 °F 53.1 °F 67% 30.25 in 10.0 mi North 6.9 mph - N/A   Scattered Clouds
12:53 PM 60.1 °F 50.0 °F 69% 30.25 in 10.0 mi NNW 9.2 mph - N/A   Partly Cloudy
1:53 PM 62.1 °F 51.1 °F 67% 30.23 in 10.0 mi North 8.1 mph - N/A   Mostly Cloudy
2:53 PM 59.0 °F 48.9 °F 69% 30.24 in 10.0 mi NNW 9.2 mph - N/A   Mostly Cloudy
3:53 PM 57.9 °F 48.9 °F 72% 30.23 in 10.0 mi North 8.1 mph - N/A   Overcast
4:53 PM 57.0 °F 48.0 °F 72% 30.23 in 10.0 mi North 6.9 mph - N/A   Overcast
5:53 PM 55.9 °F 46.9 °F 72% 30.22 in 10.0 mi NNW 10.4 mph - N/A   Mostly Cloudy
6:53 PM 54.0 °F 46.9 °F 77% 30.22 in 10.0 mi Variable 5.8 mph - N/A   Partly Cloudy
7:53 PM 53.1 °F 46.0 °F 77% 30.23 in 10.0 mi North 6.9 mph - N/A   Overcast
8:53 PM 52.0 °F 43.0 °F 71% 30.24 in 10.0 mi NNE 4.6 mph - N/A   Overcast
9:53 PM 52.0 °F 41.0 °F 66% 30.25 in 10.0 mi North 4.6 mph - N/A   Overcast
10:53 PM 53.1 °F 39.9 °F 61% 30.23 in 10.0 mi North 4.6 mph - N/A   Overcast
11:53 PM 53.1 °F 37.9 °F 57% 30.22 in 10.0 mi Calm Calm - N/A   Clear